Location: East Guldeford
(50.9500°N, 0.7500°E)
Time: 18:43:04
(UTC+00:00)

Cosmos 2366 rocket - Pass Details

Date: 12 May 2021
Orbit: 955 x 997 km, 82.9° (Epoch: 15 June)

Event Time Altitude Azimuth Distance (km) Brightness Sun altitude
Rises 22:09:35 0° 352° (N) 3,653 8.4 -17.0°
Reaches altitude 10° 22:12:09 10° 357° (N) 2,706 7.4 -17.2°
Maximum altitude 22:18:14 56° 75° (ENE) 1,144 4.3 -17.6°
Enters shadow 22:21:30 27° 142° (SE) 1,754 4.8 -17.8°
